Theta_e
287 287 287 287 287 287 286 286 286 286 286 286 286 286 286 286 286 286 286 286 286 286 286 286 286 286 287 287 287 287 287 287 287 287 288 288 288 288 288 289 289 289 289 289 289 288 289 289 289 289 289 289 289 289 289 289 289 290 290 290 290 290 290 290 290 290 291 291 291 291 291 291 291 291 291 291 292 292 292 291 292 292 292 292 292 292
287 287 287 287 287 286 286 286 286 286 286 285 285 285 285 286 286 286 286 286 286 286 286 287 287 287 287 287 287 286 287 287 287 287 287 288 288 288 288 288 288 288 288 288 288 288 288 288 288 288 289 289 289 289 289 289 289 289 290 290 290 290 290 290 290 290 290 290 290 290 290 290 291 291 291 291 291 291 291 291 291 291 292 292 292 292
287 287 287 286 286 286 286 286 285 285 285 285 285 285 286 286 286 286 286 286 286 287 287 287 287 287 287 286 286 286 286 287 287 287 287 287 288 288 288 288 288 288 287 287 287 288 288 288 288 288 288 289 289 289 289 289 289 289 290 290 290 290 290 290 290 290 290 290 290 290 290 290 290 290 290 290 290 291 291 291 291 291 292 292 292 292
287 286 286 286 286 286 286 285 285 285 285 285 285 285 286 286 286 286 286 287 287 287 287 287 287 287 286 286 286 286 286 286 286 287 287 287 287 287 287 287 287 287 287 287 287 287 288 288 288 288 288 288 288 289 289 289 289 289 289 290 290 290 290 290 290 290 290 290 290 290 290 290 290 290 290 290 290 290 290 291 291 291 291 291 291 292
286 286 286 286 285 285 285 285 285 285 285 285 285 286 286 286 286 287 287 287 287 287 287 287 286 286 286 286 286 286 286 286 286 286 286 286 286 286 286 286 286 286 286 287 287 287 287 288 288 288 288 288 288 289 289 289 289 289 289 289 289 290 290 290 289 289 289 289 289 289 289 289 289 289 289 289 290 290 290 290 290 290 290 290 290 291
286 286 285 285 285 285 285 285 285 285 285 285 286 286 286 287 287 287 287 287 287 287 287 286 286 286 286 286 285 285 285 285 286 286 286 286 285 285 285 286 286 286 286 286 287 287 287 288 288 288 288 288 288 288 288 289 289 289 289 289 289 289 289 289 289 289 289 289 289 289 289 289 289 289 289 289 289 289 289 289 289 289 289 290 290 290
285 285 285 285 285 285 285 285 285 285 286 286 286 286 287 287 287 287 287 287 287 286 286 286 286 285 285 285 285 285 285 285 285 285 285 285 285 285 285 285 286 286 286 286 287 287 287 288 288 288 288 288 288 288 288 288 288 288 288 288 288 288 288 288 288 288 288 288 288 288 288 288 288 288 288 288 288 288 288 289 289 289 289 289 289 289
285 285 285 285 285 285 285 285 285 286 286 286 286 287 287 287 287 287 286 286 286 286 285 285 285 285 285 285 285 285 285 285 285 285 285 285 285 285 285 285 286 286 286 287 287 287 287 287 287 287 287 288 288 288 288 288 288 288 288 288 288 288 288 288 288 288 288 288 288 288 288 288 288 288 288 288 288 288 288 288 288 288 289 289 289 289
285 284 284 285 285 285 285 285 285 286 286 287 287 287 287 287 287 286 286 285 285 285 285 285 285 285 285 285 285 285 285 285 285 285 285 285 285 285 285 285 286 286 286 286 287 287 287 287 287 287 287 287 287 287 287 287 287 287 287 287 287 287 287 287 287 287 287 287 287 287 287 287 287 287 287 287 287 287 287 287 288 288 288 288 288 289
285 285 285 285 285 285 285 286 286 286 287 287 287 287 287 286 286 285 285 285 285 285 285 285 285 285 285 285 284 284 284 284 284 285 285 285 285 285 285 285 286 286 286 286 286 286 286 286 286 286 286 286 286 286 287 286 287 286 286 286 286 286 287 287 287 287 287 287 287 287 287 287 287 287 287 287 287 287 287 287 287 288 288 288 288 288
285 285 285 285 285 285 286 286 287 287 287 287 287 287 286 286 285 285 285 285 285 285 285 284 284 284 284 284 284 284 284 284 284 285 285 285 285 285 285 285 285 285 285 285 285 285 285 285 285 286 286 286 286 286 286 286 286 286 286 286 286 286 286 286 286 287 287 287 287 287 287 287 287 287 287 287 287 287 287 287 287 287 288 288 288 288
285 285 285 285 286 286 286 287 287 287 287 287 286 286 285 285 285 285 285 285 284 284 284 284 284 284 284 284 284 284 284 284 285 285 285 285 285 285 285 285 285 285 285 285 285 285 285 285 285 285 285 285 285 285 285 285 285 285 285 286 286 286 286 286 286 287 287 287 287 287 287 287 287 287 287 287 287 288 287 287 287 287 287 288 288 288
286 286 286 286 286 287 287 287 287 287 287 286 285 285 285 285 285 285 285 284 284 284 284 284 284 284 284 284 284 284 284 285 285 285 285 285 285 285 285 285 285 285 285 285 285 285 285 285 285 285 285 285 285 285 285 285 285 285 285 285 286 286 286 286 287 287 287 287 287 287 287 287 287 287 287 288 288 288 288 288 287 288 288 288 288 288
286 286 286 287 287 287 288 288 287 286 286 285 285 285 285 285 285 284 284 284 284 284 284 284 284 284 284 284 284 285 285 285 285 285 285 285 285 285 285 285 285 284 284 284 284 285 285 285 285 285 285 285 285 285 285 285 285 285 285 286 286 286 286 286 287 287 287 287 287 287 287 288 288 288 288 288 288 288 288 288 288 288 288 288 288 288
287 287 287 287 288 288 288 287 286 286 285 285 285 285 285 284 284 284 284 284 284 284 284 284 284 284 284 285 285 285 285 285 285 285 285 285 285 285 285 284 284 284 284 284 284 284 285 285 285 285 285 285 285 285 285 285 285 285 285 286 286 286 286 286 287 287 287 287 287 287 287 288 288 288 288 288 288 288 288 288 288 288 288 288 288 288
287 288 288 288 288 287 287 286 285 285 285 285 285 285 284 284 284 284 284 284 284 284 284 284 284 284 285 285 285 285 285 285 285 285 285 285 285 285 284 284 284 284 284 284 284 284 284 285 285 285 285 285 285 284 284 285 285 285 286 286 286 286 286 286 286 287 287 287 287 287 287 288 288 288 288 288 288 288 288 288 288 288 288 288 288 288
288 288 288 288 287 286 286 285 285 285 285 285 285 284 284 284 284 284 284 284 284 284 284 284 285 285 285 285 285 285 285 285 285 285 285 284 284 284 284 284 284 284 284 284 284 284 284 284 284 284 284 284 284 284 285 285 285 285 285 286 286 286 286 286 286 287 287 287 287 287 287 287 287 288 288 288 288 288 288 288 288 288 288 288 288 288
288 288 287 287 286 285 285 285 285 285 285 285 284 284 284 284 284 284 284 284 284 284 284 285 285 285 285 285 285 285 285 285 285 284 284 284 284 284 284 284 284 284 284 284 284 284 284 284 284 284 284 284 284 284 285 285 285 285 285 286 286 286 286 286 286 286 286 286 287 287 287 287 287 288 288 288 288 288 288 288 288 288 288 288 288 288
287 286 286 285 285 285 285 285 284 284 284 284 284 284 284 284 284 284 284 284 284 284 285 285 285 285 285 285 285 285 285 284 284 284 284 284 284 284 284 284 284 284 284 284 284 284 284 284 284 284 284 284 284 284 284 285 285 285 285 285 286 286 286 286 286 286 286 286 287 287 287 287 287 288 288 288 288 288 288 288 288 289 288 289 289 289
285 285 285 285 284 284 284 284 284 284 284 284 284 284 284 284 284 284 284 284 285 285 285 285 285 285 285 285 285 284 284 284 284 283 283 283 283 284 284 284 284 284 284 284 284 284 284 284 284 284 284 284 284 284 284 285 285 285 285 285 285 285 285 285 286 286 286 286 287 287 287 287 287 287 288 288 288 288 288 288 289 289 289 289 289 289
284 284 284 284 284 284 284 284 284 284 284 284 284 284 284 284 284 285 285 285 285 285 285 285 285 285 285 284 284 284 284 283 283 283 283 283 283 284 284 284 284 284 284 284 284 284 284 284 284 284 284 284 284 284 284 285 285 285 285 285 285 285 285 285 286 286 286 286 287 287 287 287 287 287 288 288 288 288 288 288 289 289 289 289 289 289
284 284 284 284 284 284 284 283 283 283 283 283 284 284 284 285 285 285 285 285 285 285 285 285 285 284 284 283 283 283 283 283 283 283 283 283 283 283 284 284 284 284 284 284 284 284 284 284 284 284 284 284 284 284 284 284 285 285 285 285 285 285 285 285 286 286 286 286 287 287 287 287 287 288 288 288 288 288 288 288 288 288 289 289 289 289
283 283 283 283 283 283 283 283 283 283 284 284 285 285 286 286 286 286 286 285 285 285 284 284 283 283 283 283 283 283 283 283 282 283 283 283 283 283 283 283 283 283 284 284 284 284 284 284 284 284 284 284 284 284 284 284 285 285 285 285 285 285 285 285 286 286 286 286 286 287 287 287 287 287 288 288 288 288 288 288 288 288 288 289 289 289
283 283 283 283 283 283 284 284 284 284 284 285 286 286 287 287 286 286 285 285 284 284 283 283 283 283 283 283 283 283 283 283 282 282 282 283 283 283 283 283 283 283 283 284 284 284 284 284 284 284 284 284 284 284 284 285 285 285 285 285 285 285 285 285 285 286 286 286 286 286 286 287 287 287 287 287 288 288 288 288 288 288 289 289 289 289
283 283 283 283 284 284 284 284 284 285 285 286 286 286 286 286 285 285 284 284 283 283 283 282 282 282 282 282 282 282 283 283 282 282 282 282 282 283 283 283 283 283 283 284 284 284 284 284 284 284 284 284 285 285 285 285 284 284 285 285 285 285 285 285 285 285 286 286 286 286 286 287 287 287 287 288 288 288 288 288 288 288 289 289 289 289
283 283 283 283 284 284 284 284 284 285 285 285 285 285 285 284 284 284 283 283 282 282 282 282 282 282 282 282 282 282 283 283 282 282 282 282 282 283 283 283 283 283 283 283 283 284 284 284 284 284 284 284 285 285 285 285 284 284 285 285 285 285 285 285 285 285 286 286 286 286 287 287 287 287 287 287 288 288 288 288 288 288 288 289 289 289
283 283 283 283 284 284 284 284 284 284 284 284 284 284 283 283 283 282 282 282 282 282 282 282 282 281 281 281 281 282 282 282 282 282 282 282 282 282 283 283 283 283 283 283 283 283 283 283 284 284 284 284 285 285 285 284 284 284 285 285 285 285 285 285 285 285 286 286 286 286 286 287 287 287 287 287 287 288 288 288 288 288 288 288 289 289
283 283 283 283 283 283 283 283 283 283 283 283 282 282 282 282 282 282 282 281 281 281 281 281 281 281 281 281 281 282 282 282 282 282 282 282 282 282 283 283 283 283 283 283 283 283 283 283 283 284 284 284 284 284 284 284 284 285 285 285 285 285 285 285 285 285 285 286 286 286 286 286 287 287 287 287 287 287 288 288 288 288 288 288 288 288
283 283 283 283 283 283 283 282 282 282 282 282 282 282 282 282 282 282 281 281 281 281 281 281 281 281 281 281 281 282 282 282 283 283 282 282 282 282 282 283 283 283 283 283 283 283 283 283 283 283 284 284 284 284 284 284 285 285 285 285 285 285 285 285 285 285 285 286 286 286 286 286 286 286 287 287 287 287 287 287 288 288 288 288 288 288
283 283 283 282 282 282 282 282 282 282 282 282 282 281 281 281 281 281 281 281 281 281 281 281 281 281 281 281 281 282 282 283 283 283 282 282 282 282 282 282 282 282 282 282 283 283 283 283 283 283 284 284 284 284 284 284 284 285 285 285 285 285 285 285 285 285 285 285 286 286 286 286 286 286 286 287 287 287 287 287 288 288 288 288 288 288
282 282 282 282 282 282 282 281 281 281 281 281 281 281 281 281 281 281 281 281 281 281 281 281 281 281 281 281 281 281 282 283 284 283 282 282 282 282 282 282 282 282 282 282 283 283 283 283 283 283 283 283 284 284 284 284 284 284 284 285 285 285 285 285 285 285 285 285 285 286 286 286 286 286 286 287 287 287 287 288 288 287 287 287 287 287
282 282 282 282 282 281 281 281 281 281 281 281 281 281 281 281 281 281 281 281 281 281 281 281 281 281 281 281 281 281 282 283 283 283 282 282 282 282 282 282 282 282 282 282 282 283 283 283 283 283 283 283 283 283 284 284 284 284 284 285 285 285 285 285 285 285 285 285 285 285 286 286 286 286 287 287 287 287 287 288 288 287 287 287 287 287
282 282 282 282 281 281 281 281 281 281 281 280 280 280 281 281 281 281 281 281 281 281 281 281 281 281 281 281 281 281 282 282 283 283 282 282 282 282 282 282 282 282 282 282 282 282 283 283 283 283 283 283 283 283 284 284 284 284 284 284 285 285 285 285 285 285 285 285 285 286 286 286 286 287 287 287 287 287 288 288 288 287 287 287 287 287
281 281 281 281 281 281 281 281 281 281 281 281 280 280 280 280 280 280 280 280 280 280 280 281 281 281 281 281 281 281 282 283 283 283 282 282 282 282 282 282 282 282 282 282 282 282 283 283 283 283 283 283 283 283 283 284 284 284 284 284 284 285 285 285 285 285 285 285 285 286 286 286 286 287 287 287 287 287 287 288 288 287 287 287 287 287
280 280 280 280 280 281 281 281 281 281 281 281 280 280 280 280 280 280 280 280 280 280 280 280 281 281 281 281 281 281 282 283 284 283 282 282 282 282 282 282 282 282 282 282 282 283 283 283 283 283 283 283 283 283 283 284 284 284 284 284 284 284 285 285 285 285 285 285 285 286 286 286 286 286 286 287 287 287 287 287 287 287 287 287 287 287
280 280 280 280 280 280 280 280 281 281 281 281 280 280 280 280 280 280 280 280 280 280 280 280 281 281 281 281 281 281 282 283 283 282 282 281 281 282 282 282 282 282 282 282 282 283 283 283 283 283 283 283 283 283 283 284 284 284 284 284 284 284 284 284 285 285 285 285 285 286 286 286 286 286 286 286 286 287 287 287 287 287 287 287 287 287
280 280 280 280 280 280 280 280 280 280 280 280 280 280 280 280 280 280 280 280 280 280 280 281 281 281 281 281 281 281 281 282 282 282 282 281 281 282 282 282 282 282 282 282 283 283 283 283 283 283 283 283 283 283 283 284 284 284 284 284 284 284 284 284 284 285 285 285 285 285 285 286 286 286 286 286 286 286 287 287 287 287 287 287 287 287
280 280 280 280 280 280 280 280 280 280 280 280 280 280 280 280 280 280 280 280 280 280 280 280 281 281 281 281 281 281 281 281 281 282 282 282 282 282 282 282 282 282 282 283 283 283 283 283 283 283 283 283 283 283 283 284 284 284 284 284 284 284 284 284 285 285 285 285 285 285 285 285 285 285 286 286 286 286 286 287 287 287 287 287 287 287
280 280 280 280 280 280 280 280 280 280 280 280 280 280 280 280 280 280 280 281 281 281 281 281 281 281 282 282 282 282 282 282 282 282 282 282 282 282 282 282 282 282 282 283 283 283 283 283 283 283 283 283 283 283 283 284 284 284 284 284 284 284 284 285 285 285 285 285 285 285 285 285 285 285 285 285 285 285 286 286 286 287 287 287 287 287
280 280 280 280 280 280 280 280 280 280 280 280 280 280 280 280 281 281 281 281 281 281 281 281 281 282 282 282 283 283 283 283 283 283 282 282 282 282 282 282 282 282 282 283 283 283 283 283 283 283 283 283 283 284 284 284 284 284 284 284 284 284 285 285 285 285 285 285 285 285 285 285 285 285 285 285 285 285 286 286 286 286 286 286 286 287
280 280 280 280 280 280 280 280 280 280 280 280 280 280 281 281 281 281 282 282 282 282 282 282 282 282 283 283 284 284 283 283 283 283 282 282 282 282 282 282 282 282 283 283 283 283 283 283 283 283 283 283 284 284 284 284 284 284 284 284 284 284 284 285 285 285 285 285 285 285 285 285 285 285 285 285 285 286 286 286 286 286 286 286 286 287
280 280 280 280 280 280 280 280 280 280 280 281 281 281 281 281 281 281 281 282 282 283 283 282 282 282 283 283 284 284 284 283 283 283 282 282 282 282 282 282 282 283 283 283 283 283 283 283 283 283 284 284 284 284 284 284 284 284 284 284 284 284 284 285 285 285 285 285 285 285 285 285 285 285 285 285 285 286 286 286 286 286 286 286 287 287
280 280 280 281 281 281 281 281 281 281 281 281 281 281 281 281 281 281 281 282 282 282 282 282 282 282 282 282 283 284 284 284 283 283 283 283 282 282 282 282 283 283 283 283 283 283 283 283 283 284 284 284 284 284 284 284 284 284 284 284 284 285 285 285 285 285 285 285 285 285 285 285 285 285 285 285 285 286 286 286 286 286 286 286 287 287
280 281 281 281 281 281 281 281 281 281 281 281 281 281 282 282 282 282 281 282 282 282 282 282 282 282 282 282 282 283 283 284 284 283 283 283 283 283 283 283 283 283 283 283 283 283 283 283 283 284 284 284 284 284 284 284 284 284 284 285 285 285 285 285 285 285 285 285 285 285 285 285 285 285 285 285 285 286 286 286 286 286 286 286 287 287
280 281 281 281 281 281 281 281 281 281 281 282 282 283 283 283 283 282 282 282 282 282 282 282 282 281 281 282 282 282 282 283 283 284 284 284 283 283 283 283 283 283 283 283 283 283 283 284 284 284 284 284 284 284 284 284 284 284 285 285 285 285 285 285 285 285 285 285 285 285 285 285 285 285 285 286 286 286 286 286 286 286 286 286 287 287
280 280 281 281 281 281 281 281 281 281 282 283 283 284 284 283 283 283 282 282 282 282 282 282 282 281 281 282 282 282 282 282 283 283 284 284 284 284 284 283 283 283 283 283 283 284 284 284 284 284 284 284 284 284 284 284 285 285 285 285 285 285 285 285 285 285 285 285 285 285 285 285 285 285 286 285 285 285 286 286 286 286 286 286 287 287
280 280 281 281 281 281 281 281 281 281 282 283 284 284 284 284 283 283 282 282 282 282 282 282 282 282 282 282 282 282 282 282 282 283 283 283 284 284 284 284 284 284 283 284 284 284 284 284 284 284 284 284 284 284 285 285 285 285 285 285 285 285 285 285 285 285 285 285 285 285 285 285 285 285 285 285 285 285 285 286 286 286 286 286 287 287
280 280 280 280 280 280 281 281 281 281 282 283 284 285 284 284 283 282 282 282 282 282 282 282 282 282 282 282 282 282 282 282 282 282 283 283 283 283 284 284 284 284 284 284 284 284 284 284 284 284 284 284 284 285 285 285 285 285 285 285 285 285 285 285 285 285 285 285 285 285 285 285 285 285 285 285 285 285 285 286 286 286 286 286 287 287
280 280 280 280 280 280 280 281 281 281 282 283 283 284 284 284 283 282 282 282 282 281 281 281 282 282 282 282 282 282 282 282 282 283 283 283 283 283 283 283 284 284 284 284 284 284 284 284 284 284 285 285 285 285 285 285 285 286 285 285 286 286 286 286 285 285 285 285 285 285 285 285 285 285 285 285 285 285 285 286 286 286 286 286 287 287
280 280 280 280 280 280 280 281 281 282 282 283 283 283 284 284 283 283 282 282 282 282 282 282 282 282 282 282 282 282 282 282 282 283 283 283 283 283 283 283 283 283 284 284 284 284 284 284 284 285 285 285 285 286 286 286 286 286 286 286 286 286 286 286 285 285 285 285 285 285 285 284 284 284 284 285 285 285 285 285 286 286 286 286 287 287
280 280 280 280 280 280 281 281 282 282 282 283 283 283 283 283 283 283 282 282 282 282 282 282 282 282 282 282 282 282 282 282 283 283 283 283 283 283 283 283 283 284 284 284 284 284 284 285 285 285 285 285 286 286 286 286 286 286 286 285 285 285 285 285 285 285 285 285 285 285 284 284 284 284 284 285 285 285 285 285 286 286 286 286 287 287
Wind_Speed
27 27 28 28 29 30 30 30 30 31 32 32 31 30 30 30 29 29 29 29 29 29 29 29 29 30 31 32 33 33 33 32 32 32 32 32 31 31 31 31 31 31 31 32 33 33 34 34 34 34 34 33 33 32 32 31 31 31 31 31 31 31 31 31 31 32 32 32 32 32 32 32 33 33 33 33 33 33 33 34 34 34 34 34 34 34
27 28 28 27 28 29 30 30 30 30 31 31 31 30 30 30 30 30 29 29 29 29 29 30 31 32 33 34 34 34 33 32 31 31 31 31 31 31 31 31 31 32 32 33 34 34 34 34 34 33 33 32 32 31 31 31 31 31 31 31 31 31 32 32 32 32 32 32 32 32 33 33 33 33 33 33 33 34 34 34 34 34 34 34 34 34
27 28 28 27 28 28 29 30 30 29 29 30 30 30 29 30 30 30 30 30 30 30 30 31 32 33 34 34 34 33 31 30 30 30 30 30 30 30 31 31 32 32 33 34 34 34 34 33 33 32 32 32 31 31 31 31 31 31 31 31 31 32 32 32 32 32 32 32 33 33 33 33 33 33 33 33 34 34 34 34 34 34 34 34 34 34
27 28 28 28 28 28 28 29 30 30 29 29 29 29 29 30 30 30 31 31 31 32 32 32 33 33 33 33 32 31 30 29 29 29 30 30 30 31 31 32 33 34 34 34 34 33 33 32 32 32 32 32 31 31 31 31 31 31 31 31 32 32 32 32 32 32 33 32 33 33 33 33 33 33 33 34 34 34 34 34 34 34 35 35 35 35
27 27 28 28 28 28 28 29 29 29 29 29 29 29 30 30 30 31 32 32 33 33 33 32 32 31 31 31 30 30 30 29 29 29 30 30 31 32 32 33 34 34 34 34 33 33 32 32 32 32 32 31 31 31 31 31 31 31 32 32 32 32 32 32 32 33 33 33 33 33 33 33 33 33 33 34 34 34 34 34 34 35 35 35 36 36
28 27 27 27 27 28 29 29 29 29 29 29 29 29 30 30 31 32 32 32 32 32 32 31 30 30 30 30 30 30 30 30 30 30 31 31 32 33 34 34 34 34 33 33 33 32 32 32 32 32 32 32 32 32 32 32 32 32 32 32 32 32 32 33 32 32 32 32 32 32 32 33 33 33 33 33 33 33 34 34 34 34 35 35 35 35
28 27 27 27 28 28 28 28 28 29 29 30 30 30 31 31 31 31 32 31 31 30 30 30 29 29 30 30 30 31 31 31 32 32 33 33 34 34 34 33 33 32 32 32 32 32 32 32 32 32 32 32 32 32 32 33 33 33 33 33 33 33 33 33 32 32 32 32 32 32 32 32 32 32 32 32 32 33 33 33 33 33 34 34 34 34
29 28 27 27 28 29 28 28 27 28 30 30 31 31 32 31 30 30 30 30 30 29 29 29 29 30 30 30 31 31 31 32 33 34 34 34 34 34 33 32 32 32 32 32 32 32 32 32 32 32 32 32 32 33 33 33 33 33 33 33 33 33 33 32 32 31 31 31 31 31 31 31 31 31 31 32 32 32 32 32 33 33 33 33 34 34
28 28 27 27 27 28 30 30 29 28 30 30 31 31 31 31 30 29 29 29 29 29 29 29 30 30 30 30 30 30 31 32 32 33 34 33 33 33 33 32 32 32 32 31 31 31 32 32 32 32 33 33 33 33 33 33 33 33 33 32 32 32 32 31 31 31 30 30 30 30 30 30 30 30 30 31 31 31 31 32 32 32 33 33 33 33
26 27 28 28 27 28 31 32 32 31 30 29 28 27 27 29 30 31 30 30 29 29 29 29 29 30 30 30 30 31 32 32 33 33 33 33 32 32 32 31 31 31 31 31 31 32 32 33 33 33 33 34 33 33 33 32 32 32 32 31 31 30 30 30 30 29 29 29 29 29 29 29 29 29 30 30 30 31 31 31 31 32 32 32 33 33
27 27 28 29 29 30 32 33 33 32 29 27 26 25 25 27 29 31 32 31 30 29 28 28 28 29 30 31 31 32 32 33 34 34 33 33 32 31 31 31 31 32 32 33 33 34 34 34 34 34 33 33 33 33 32 32 31 31 31 30 30 29 28 28 29 29 29 29 28 29 29 29 29 30 30 30 31 31 31 31 32 32 32 33 33 33
27 28 29 30 32 33 33 33 31 28 25 24 26 27 27 27 27 29 30 31 30 30 29 28 29 29 31 32 33 33 33 33 33 33 33 33 32 31 31 31 32 34 34 35 35 36 35 35 34 34 33 33 32 32 31 31 31 31 30 29 29 28 28 28 28 29 29 29 29 29 29 30 30 30 31 31 31 31 32 32 32 32 33 33 33 33
28 29 31 32 33 33 32 29 26 24 24 25 27 29 29 28 27 28 29 29 30 29 29 29 30 31 32 32 32 32 32 32 32 32 32 31 31 31 31 33 34 35 36 36 36 36 36 35 35 34 33 33 32 32 31 31 31 30 30 29 29 29 29 29 29 30 30 30 30 30 30 30 30 30 31 31 31 32 32 32 32 33 33 33 33 34
30 31 33 34 33 30 27 24 24 26 28 28 29 29 29 28 28 28 28 28 29 29 29 30 32 32 32 32 31 30 30 30 30 30 30 30 31 32 33 34 36 36 36 36 36 36 36 35 34 34 34 34 33 33 32 32 31 30 30 30 30 30 30 30 30 30 30 30 30 30 30 30 30 31 31 31 31 32 32 32 33 33 33 34 34 34
32 33 33 32 29 25 24 25 27 29 30 29 29 28 28 28 28 27 27 28 29 29 30 31 32 32 32 30 29 29 28 28 28 28 29 31 33 35 35 35 36 37 36 36 36 36 35 34 34 34 34 35 34 34 33 32 31 31 30 31 31 31 31 31 31 31 31 31 30 30 30 31 31 31 31 31 32 32 32 32 33 33 33 34 34 34
33 32 30 27 25 25 26 28 29 30 30 29 28 28 28 27 27 27 27 28 29 30 30 31 32 32 32 31 29 27 26 26 27 28 30 34 37 37 36 35 35 35 36 35 34 34 34 34 34 34 35 35 34 33 32 32 31 31 31 32 32 32 32 32 32 32 32 31 31 31 31 31 31 31 31 31 31 32 32 32 33 33 33 33 34 34
31 28 26 25 26 28 30 30 29 29 29 28 28 27 27 26 27 27 28 29 30 30 30 30 31 31 31 31 30 27 25 25 27 30 33 36 38 39 37 35 34 35 34 34 33 33 34 34 34 34 35 35 34 33 33 32 32 32 32 32 32 32 32 32 33 33 33 32 32 31 31 31 30 30 30 31 31 31 32 32 32 32 33 33 33 33
29 27 27 29 30 30 31 30 30 29 28 28 27 27 27 27 28 29 29 30 31 31 32 32 32 31 31 31 30 28 28 28 30 33 36 38 40 40 37 34 33 32 32 33 34 33 33 34 34 35 35 35 34 33 33 33 32 32 32 32 32 32 33 33 33 33 33 32 32 31 31 30 30 30 30 30 30 31 31 31 31 32 32 32 33 33
30 31 32 32 31 30 30 29 29 28 27 27 27 27 28 29 30 31 31 31 32 33 34 33 32 32 31 30 31 31 31 32 33 35 36 38 39 39 36 33 31 31 32 33 33 33 34 34 35 35 35 35 34 34 33 33 32 32 33 33 33 33 33 33 32 32 31 31 31 31 30 30 29 29 29 29 29 29 30 30 31 31 32 32 32 33
31 31 32 31 30 30 29 29 28 28 27 27 28 29 31 32 32 32 32 34 34 34 35 34 32 30 29 30 33 35 36 35 36 36 36 37 38 37 34 31 30 30 32 33 34 34 34 34 35 36 36 36 35 34 34 33 33 33 33 33 33 33 32 31 31 30 30 30 29 29 29 29 29 29 29 29 29 29 30 30 30 31 31 32 32 32
32 32 31 30 29 29 29 29 28 28 28 29 31 33 34 34 34 34 35 35 35 34 31 29 28 29 31 33 36 39 40 38 35 33 33 34 35 34 33 31 30 31 32 34 34 34 33 34 35 36 36 36 35 35 34 34 34 34 34 33 32 31 31 30 29 29 29 29 29 29 29 29 30 30 30 30 30 30 30 30 30 30 31 31 31 31
31 31 30 29 29 29 29 30 30 30 30 31 33 34 35 36 37 37 37 34 31 29 27 28 30 33 35 37 40 41 40 35 32 30 30 32 33 34 33 31 30 30 31 33 33 33 33 34 35 36 36 36 35 35 35 35 35 34 33 32 31 31 30 29 29 29 29 29 29 30 30 30 31 31 32 32 32 31 31 30 30 30 29 29 29 29
30 30 30 29 29 29 30 31 31 31 32 33 34 36 37 36 35 32 30 28 28 29 31 34 36 38 38 38 39 38 36 31 28 26 27 30 32 32 32 30 30 31 31 33 34 34 34 34 35 35 36 36 36 36 36 35 34 34 33 32 31 30 30 29 29 30 30 30 30 30 30 30 30 30 30 29 29 29 28 28 28 29 29 29 29 29
27 27 27 27 28 28 29 30 31 32 33 34 35 35 34 32 29 28 29 31 33 36 37 38 38 38 38 37 36 34 32 28 25 24 25 28 30 31 31 30 30 31 33 34 33 33 33 34 35 36 36 37 37 37 36 35 34 33 32 31 30 30 30 30 30 31 31 31 30 30 29 28 28 27 26 26 26 26 26 27 27 28 28 29 29 29
24 24 25 26 27 27 27 28 29 31 32 33 33 32 31 32 33 36 38 39 38 37 36 34 34 34 35 32 31 31 31 29 26 25 25 28 29 31 31 31 31 32 33 34 34 33 33 34 36 37 37 38 37 36 35 34 33 32 31 31 30 31 31 31 32 31 31 30 29 27 26 25 25 25 25 25 25 26 27 27 28 28 29 29 29 29
22 23 24 25 26 27 27 28 28 29 30 31 31 32 34 35 37 37 37 35 33 32 30 31 31 31 31 30 30 31 32 30 27 25 25 26 28 30 31 31 31 31 33 34 33 33 33 34 36 37 38 38 37 36 35 35 34 33 31 31 31 32 33 33 32 31 30 29 28 27 26 26 26 26 26 26 27 28 28 29 29 30 30 30 30 30
23 24 25 26 26 27 27 28 29 29 30 31 31 31 31 31 32 32 31 29 29 28 29 30 30 30 30 29 30 31 32 30 28 26 25 25 28 30 31 31 30 30 32 33 33 33 33 34 36 37 37 37 37 36 36 35 34 33 33 33 33 34 34 33 33 32 31 29 29 28 28 28 27 27 27 28 28 29 29 30 30 30 31 31 31 31
26 26 26 27 27 28 29 30 31 31 31 31 29 27 25 25 26 27 28 27 27 27 28 28 29 29 29 29 30 32 33 31 29 27 24 25 26 28 29 30 29 30 31 33 35 35 34 34 35 35 36 36 36 36 36 36 35 35 35 35 35 35 34 34 33 32 31 31 30 30 29 29 29 29 29 29 29 29 29 29 29 30 30 30 31 31
28 28 28 28 29 30 32 32 32 30 28 26 23 21 19 20 22 24 25 25 25 26 27 28 28 28 29 29 31 32 34 32 29 26 23 23 25 28 29 29 29 30 31 33 35 35 33 32 31 31 32 34 35 36 37 37 38 38 38 38 37 36 35 34 34 33 33 32 32 31 31 31 30 30 30 30 29 29 29 28 28 28 29 30 31 31
30 31 32 32 32 32 31 30 28 25 23 21 20 19 19 19 21 22 24 24 25 26 27 28 28 29 30 30 30 31 32 31 28 24 23 24 26 29 30 30 30 31 31 32 33 33 32 31 30 29 30 32 35 37 38 39 39 39 39 39 39 38 37 36 35 34 34 34 33 33 32 32 31 31 30 30 29 29 28 28 27 28 29 30 30 31
32 33 34 33 31 29 27 25 24 23 22 22 22 21 20 20 21 22 23 23 24 25 26 28 29 29 30 30 28 28 30 32 30 27 26 26 28 31 31 31 31 32 31 31 30 30 31 32 32 31 31 33 35 37 38 38 38 38 39 39 39 39 38 37 36 35 35 35 34 34 33 33 32 31 31 30 29 29 28 27 27 27 29 30 31 32
33 32 31 30 28 26 24 24 23 24 24 24 23 22 22 22 22 22 23 23 24 25 26 27 29 30 30 29 29 30 33 35 33 30 28 28 29 31 32 32 32 33 33 31 30 30 29 32 35 36 35 34 35 36 37 37 38 38 38 38 39 40 39 37 37 37 37 37 36 35 34 33 32 32 31 30 29 28 27 27 26 27 28 30 31 32
31 29 28 27 26 25 25 24 24 25 25 24 24 23 23 23 22 23 23 23 24 24 25 27 29 30 31 32 33 34 36 36 34 31 28 29 30 32 32 33 34 35 35 34 33 31 31 34 37 38 37 36 35 35 36 37 37 37 37 38 39 40 40 39 39 38 38 38 37 36 35 34 33 32 31 30 29 28 27 27 26 27 28 29 31 32
28 27 27 27 26 26 25 25 25 25 25 25 24 24 23 23 23 24 24 24 24 24 25 26 28 30 31 33 35 36 37 36 34 31 30 30 31 33 34 35 35 36 36 35 34 33 34 35 36 37 37 37 37 36 36 36 36 36 37 37 39 41 42 41 41 40 40 39 38 37 36 35 35 34 32 31 30 29 28 28 27 27 27 29 31 32
27 27 26 26 26 26 26 26 26 26 25 25 25 24 24 24 25 25 25 25 24 24 25 26 27 29 30 33 35 37 38 37 35 33 33 33 35 36 36 36 36 37 37 36 35 35 34 35 36 36 37 37 38 37 36 35 35 36 37 38 39 41 41 41 41 41 40 40 39 38 38 37 36 36 35 33 32 31 30 29 28 28 28 28 29 31
26 26 26 26 26 26 26 26 26 27 27 27 26 26 26 26 26 26 26 26 25 25 25 25 26 27 29 31 34 36 38 38 37 35 35 36 37 39 39 38 38 38 38 38 39 38 37 37 37 37 37 36 37 37 36 35 35 37 38 40 41 41 41 41 40 40 40 39 39 39 39 39 38 38 36 35 33 32 31 30 30 29 29 29 29 30
26 26 26 26 26 26 27 27 27 27 27 28 28 27 27 27 27 27 27 27 27 27 26 26 27 27 28 30 32 35 37 38 37 37 36 36 37 38 40 40 39 38 39 40 41 41 40 38 38 37 36 35 35 35 37 38 38 39 40 41 41 41 41 40 39 38 38 39 39 40 40 40 39 39 38 36 34 33 33 32 31 31 31 31 31 31
26 27 27 26 26 27 27 27 27 27 28 28 29 29 28 28 28 28 28 28 28 28 27 28 28 29 30 31 32 34 35 36 36 36 35 35 35 36 38 39 39 39 39 40 40 40 40 38 37 37 36 36 36 36 38 39 40 41 41 42 41 40 40 39 38 37 37 38 39 40 40 40 40 39 38 37 36 35 35 35 34 34 34 34 34 34
27 28 27 27 27 27 27 27 28 28 28 28 29 29 29 28 28 28 28 28 28 28 28 28 29 30 31 32 33 33 34 34 35 34 34 33 33 33 34 36 37 37 37 37 38 39 39 39 39 38 37 38 38 40 41 41 41 41 42 42 41 40 39 38 37 37 38 38 39 40 40 40 40 39 39 38 38 37 37 37 37 37 37 38 38 38
27 28 28 27 27 27 27 27 27 28 28 29 28 29 29 29 29 28 28 28 28 28 28 29 30 31 32 33 33 34 34 34 34 33 33 32 32 31 32 33 35 36 36 36 36 37 38 39 40 39 38 39 40 41 42 42 42 42 41 40 40 40 40 39 39 39 39 39 39 39 40 40 39 39 39 38 38 38 38 38 38 39 39 39 40 41
27 27 28 28 28 28 28 27 27 27 28 29 29 29 29 29 29 29 29 29 29 29 29 30 31 32 33 34 34 34 34 34 34 33 33 33 32 31 31 32 32 33 34 35 36 36 37 38 39 40 40 41 41 42 42 43 42 40 39 39 40 42 42 41 40 40 39 39 39 39 39 39 39 39 39 39 39 39 39 39 40 41 41 41 40 41
26 27 27 27 28 28 28 28 28 28 28 28 29 29 29 28 27 28 28 29 30 30 30 31 32 33 35 35 35 35 34 34 34 34 33 33 32 31 30 30 31 31 32 34 35 36 36 37 38 39 40 41 41 40 40 42 43 41 41 41 42 43 43 42 41 39 38 38 39 39 39 39 39 40 40 40 41 41 41 41 41 41 41 41 41 41
26 27 27 27 27 28 28 28 28 28 28 28 28 28 27 27 26 27 28 29 30 30 31 31 32 33 35 36 37 36 36 35 35 34 33 32 31 30 30 30 30 31 31 33 35 36 37 37 37 38 39 39 40 40 40 42 43 43 42 42 41 40 39 41 41 40 39 40 40 41 40 40 40 40 41 41 42 42 43 42 42 42 42 42 41 41
26 27 27 27 27 27 27 27 27 27 27 27 28 27 27 26 26 26 27 28 30 31 31 32 32 33 35 36 37 37 38 37 36 34 33 32 31 30 30 30 31 31 32 32 34 36 37 37 37 37 38 38 39 41 42 42 43 43 43 42 41 40 39 41 42 42 42 42 41 41 41 40 41 41 41 42 42 43 43 43 43 43 42 42 41 40
26 26 26 26 26 26 27 27 27 27 27 27 28 27 26 26 26 27 27 29 30 31 32 32 33 33 33 34 36 37 38 38 37 36 34 33 32 31 31 31 32 32 32 33 34 35 36 37 38 38 38 39 39 40 41 42 43 43 43 42 41 41 41 42 42 42 41 42 42 42 41 41 40 40 40 41 41 42 42 42 42 42 42 41 40 40
26 26 26 26 27 27 27 27 27 27 27 27 27 26 26 26 27 28 29 30 31 32 32 32 32 33 33 35 36 37 38 38 38 38 36 35 34 33 33 33 33 33 33 34 34 35 35 36 37 38 39 39 39 40 40 41 41 42 42 41 41 40 41 41 41 41 41 41 42 41 41 40 39 38 39 40 41 42 42 42 41 41 40 40 40 39
26 27 27 27 28 28 28 27 27 28 28 27 27 26 26 27 28 29 30 30 31 32 33 33 33 33 34 35 36 36 37 38 38 38 38 37 37 36 35 34 34 34 34 35 35 35 35 36 36 37 38 39 40 40 40 40 39 39 40 39 39 39 40 41 41 41 41 40 40 40 40 39 37 37 39 41 42 43 42 41 40 40 39 39 39 39
26 27 27 28 28 28 28 28 28 28 28 27 27 27 27 28 29 30 31 31 32 32 33 33 34 34 35 36 36 36 36 36 37 38 39 38 38 37 37 37 36 36 35 35 35 35 36 36 35 35 35 36 37 39 39 38 37 37 38 38 39 39 40 41 41 40 39 39 39 39 40 39 39 40 41 42 42 42 41 41 40 39 39 39 39 38
26 27 27 27 28 29 29 28 28 28 28 27 28 28 29 29 30 31 32 32 33 33 33 34 34 35 36 36 37 36 35 35 36 37 38 38 38 37 38 38 38 37 37 37 36 36 36 36 35 33 32 31 32 34 36 36 36 36 36 37 37 38 39 39 39 38 38 38 39 40 40 40 39 40 40 39 40 41 42 42 42 40 39 38 38 38
26 26 27 27 28 28 28 28 27 27 27 28 29 30 31 31 32 32 32 33 33 34 34 34 35 35 36 36 37 37 36 36 37 38 38 38 37 37 38 38 38 38 38 37 37 36 36 35 33 31 29 27 26 28 30 33 34 34 35 35 35 36 36 37 38 38 39 39 40 40 40 40 40 39 39 37 38 40 42 42 42 40 39 38 38 38
26 26 26 26 27 27 27 27 27 27 28 28 30 31 32 33 34 34 34 34 35 35 35 35 35 35 35 36 37 36 36 36 37 38 38 38 38 38 38 39 38 38 38 36 35 34 33 32 31 29 28 25 23 22 25 28 32 33 34 34 34 35 35 37 38 39 40 40 41 41 41 41 40 38 37 37 37 39 40 40 40 40 39 38 39 40
Wind_Direction
297 298 299 300 301 301 302 302 303 304 306 307 308 310 311 310 309 309 308 308 308 307 306 305 305 304 303 302 301 300 300 299 299 300 300 300 300 299 299 299 299 299 299 299 298 298 298 298 298 297 296 295 295 294 293 293 292 291 291 290 289 289 288 288 287 287 286 286 285 284 283 283 282 281 280 279 279 277 276 275 275 274 273 272 272 271
299 299 301 302 303 303 303 304 305 306 307 308 310 311 311 311 310 309 308 308 307 306 305 304 303 302 301 301 301 301 301 300 300 300 300 300 300 299 299 299 299 299 299 299 299 298 298 298 298 297 297 296 295 295 294 294 293 292 291 290 290 289 288 288 288 287 286 286 285 285 284 283 283 282 281 280 279 278 277 276 275 275 274 273 272 272
301 302 302 303 304 303 303 305 306 307 308 309 310 311 312 311 310 309 308 308 307 305 304 303 302 302 302 302 302 302 302 301 300 300 300 299 299 299 299 299 299 299 299 299 298 298 298 298 298 297 297 297 296 296 295 294 293 292 291 290 290 289 289 288 288 287 287 286 286 285 284 284 283 282 281 280 280 279 278 277 276 275 274 273 272 271
301 302 303 304 304 304 303 304 306 308 309 309 310 311 311 310 308 307 307 306 305 304 304 304 303 303 303 303 304 303 303 301 300 299 299 299 298 298 298 298 298 298 298 299 299 299 299 299 299 299 298 298 297 296 295 294 293 292 292 291 290 290 289 289 288 288 287 287 286 285 285 284 283 282 281 280 279 279 278 277 276 274 273 272 272 270
301 302 303 304 304 303 303 305 307 309 310 310 309 310 310 308 306 305 306 305 305 305 305 305 305 304 303 303 303 302 301 300 299 298 298 298 298 298 298 298 298 299 299 299 299 299 300 300 299 299 299 299 298 297 296 295 294 293 293 292 291 291 290 289 288 288 287 286 285 284 284 283 282 282 281 280 279 278 277 276 275 274 273 272 271 271
300 301 302 302 302 302 303 306 308 310 310 309 308 308 307 305 305 305 305 306 306 306 306 305 304 303 302 301 300 300 299 299 298 297 297 297 297 297 298 299 300 301 301 301 300 300 300 300 300 300 299 299 298 297 296 295 294 293 292 292 291 290 289 289 288 287 286 285 285 284 283 283 282 282 281 280 279 278 277 276 275 274 273 273 272 271
299 299 300 300 301 301 303 305 308 310 309 308 308 306 304 303 304 305 306 307 306 306 305 304 302 301 300 299 299 298 298 298 297 297 297 298 299 299 300 301 302 302 302 301 300 300 300 300 300 299 299 298 297 296 295 294 293 292 291 291 290 289 289 288 288 287 286 286 285 284 284 283 283 282 281 281 280 278 277 276 275 275 274 273 273 272
299 300 300 301 302 304 304 305 306 308 308 307 305 303 303 304 305 306 307 307 306 305 303 302 301 300 299 299 299 299 299 299 299 299 300 301 302 302 303 303 303 303 301 300 300 300 300 300 299 298 297 297 296 295 295 294 293 292 292 292 291 290 290 289 289 288 288 287 286 285 285 284 284 283 282 281 281 279 278 277 276 275 275 274 273 272
298 300 300 301 302 303 305 306 305 305 306 304 302 302 304 307 307 306 306 305 304 303 303 302 302 301 300 300 300 300 300 300 300 301 302 302 303 303 304 304 303 302 301 300 300 300 299 299 298 297 296 295 295 295 295 294 294 294 294 294 293 292 292 291 291 290 289 288 288 287 286 286 285 285 284 283 282 281 280 279 278 277 276 275 274 273
297 298 299 301 301 301 303 305 306 306 304 302 301 303 306 308 308 307 305 304 304 303 303 303 302 302 302 301 301 301 302 302 302 303 303 303 303 303 303 303 302 301 300 299 299 299 299 297 297 296 296 297 297 297 296 296 296 296 295 295 294 294 294 293 292 291 291 290 289 289 288 287 287 286 285 285 284 283 282 281 280 278 277 276 275 274
299 299 299 300 302 303 303 303 304 304 304 304 305 305 305 305 305 305 305 305 305 304 304 303 302 302 302 302 302 303 303 304 305 305 306 306 305 305 303 302 302 301 301 300 300 299 299 299 299 299 299 299 299 299 299 299 299 299 298 297 296 296 295 294 293 292 292 291 290 289 289 288 287 287 286 286 285 284 283 282 281 280 279 278 277 276
299 299 299 302 303 303 303 301 301 302 305 308 308 306 304 303 303 303 303 304 304 304 304 303 302 301 301 302 303 304 305 305 305 306 307 307 306 305 304 303 302 302 302 301 301 301 301 301 301 301 301 301 301 302 302 302 301 300 300 299 298 297 296 295 294 293 293 292 291 290 289 288 287 287 286 286 285 284 283 283 282 281 280 279 277 276
299 300 300 300 301 301 300 299 301 304 307 307 306 305 304 304 304 303 301 301 302 303 304 303 302 302 302 303 303 304 305 305 305 305 305 304 304 304 304 303 303 303 303 302 302 303 303 303 304 304 303 304 304 304 303 303 302 302 300 300 299 299 297 296 295 294 293 292 291 290 289 288 287 286 286 285 285 284 283 282 282 281 280 279 278 277
299 300 300 299 298 297 298 301 304 306 305 304 303 302 302 303 303 303 302 301 301 302 302 302 302 302 303 304 305 305 305 304 303 303 302 301 302 302 303 303 303 303 303 303 302 303 304 305 305 306 306 307 307 306 305 304 304 302 301 300 299 298 297 296 295 294 293 292 291 290 289 288 287 287 286 285 284 284 283 282 282 281 280 279 278 277
300 299 296 294 294 296 300 304 305 304 303 302 301 301 301 302 303 302 302 301 302 302 303 302 302 302 303 303 305 306 305 303 301 300 300 300 301 302 303 303 303 303 303 302 302 304 306 306 306 306 307 308 307 307 306 304 302 301 301 299 298 297 297 296 295 294 294 293 292 291 290 289 288 287 286 285 285 284 283 282 282 281 280 279 278 278
301 299 296 294 296 300 302 303 303 302 301 301 301 301 301 302 302 302 301 301 302 303 303 303 303 303 303 304 305 306 305 303 301 301 301 301 302 303 303 303 302 302 302 302 302 304 306 306 306 306 306 307 306 305 304 303 301 300 300 299 297 297 296 296 295 295 294 293 292 291 290 289 288 287 286 286 285 284 284 283 282 282 281 280 279 279
301 300 299 300 302 303 302 302 301 300 300 300 301 301 301 301 301 301 300 300 300 300 301 300 300 301 302 304 305 306 305 303 302 302 302 302 302 303 303 302 301 301 301 301 302 303 304 305 306 306 306 306 306 305 304 303 302 301 301 300 299 297 297 296 295 295 294 293 292 291 290 289 288 287 286 286 285 285 284 284 283 283 282 281 281 280
301 301 302 302 302 302 301 301 300 299 300 300 301 301 301 300 299 299 299 298 297 296 297 297 297 297 297 299 302 303 304 303 303 304 303 302 302 303 304 303 301 300 300 301 302 303 304 304 305 305 306 306 306 305 304 303 303 302 302 301 299 298 297 296 296 295 294 294 293 292 291 290 289 288 287 286 285 285 284 284 284 283 283 282 281 280
299 299 299 299 299 299 299 298 298 299 300 301 301 302 301 300 299 298 297 297 296 294 294 294 294 294 294 295 298 301 302 303 304 304 302 301 301 303 305 304 302 300 300 300 301 303 304 304 305 306 306 306 305 304 304 304 303 303 303 302 301 300 300 299 298 297 296 296 295 294 293 292 291 289 288 287 286 285 285 284 284 283 282 282 281 280
297 297 296 297 298 298 297 297 297 298 299 299 300 300 299 298 298 297 296 296 295 294 293 293 293 294 295 297 298 300 302 304 304 303 301 300 300 302 305 304 301 300 300 300 301 303 304 305 306 307 307 306 306 305 305 305 305 305 304 304 304 304 303 302 301 300 298 297 296 295 295 294 294 293 292 290 289 288 286 285 284 284 283 282 281 281
295 295 294 295 295 296 295 295 296 296 297 299 300 300 299 298 298 297 296 295 295 294 295 294 295 296 298 299 299 300 301 303 303 302 300 299 299 301 303 303 301 299 299 299 301 304 304 305 305 306 306 306 306 306 306 306 306 306 307 306 306 306 305 304 303 302 300 299 299 298 298 297 297 296 295 293 291 290 288 287 285 284 284 283 282 282
293 293 293 293 293 293 293 294 296 298 300 302 302 301 300 299 298 296 297 297 297 298 298 298 298 298 298 298 298 299 301 302 302 300 299 297 296 298 302 302 301 299 297 298 301 303 304 304 304 304 305 305 306 306 306 306 307 308 308 307 307 307 307 306 305 304 303 302 301 301 299 298 296 295 294 292 291 289 288 287 286 286 285 284 284 283
292 292 293 294 294 294 295 297 300 303 305 306 305 303 303 302 301 300 302 303 303 302 300 299 299 298 298 297 298 299 301 301 301 299 296 293 293 296 301 302 301 298 296 299 301 303 304 304 304 304 305 306 307 307 308 308 308 309 309 308 308 308 308 308 307 306 305 303 302 300 298 296 294 293 292 291 290 289 289 288 288 287 287 287 286 285
293 294 295 296 297 297 299 300 302 305 306 305 304 303 304 305 306 305 304 301 299 299 298 299 299 299 298 299 299 301 302 302 301 298 294 291 291 295 299 301 300 299 298 300 302 303 304 303 304 304 305 307 309 310 310 311 311 310 310 309 310 311 310 308 307 306 305 304 302 300 299 297 296 295 294 294 293 293 293 292 291 290 290 289 288 287
295 295 295 296 297 298 299 300 301 301 301 300 299 299 300 299 297 295 293 294 295 297 298 300 300 300 300 301 302 302 304 305 304 299 295 292 293 295 299 300 299 298 300 303 304 304 303 303 304 305 307 309 310 312 313 314 314 313 312 311 311 311 310 309 308 307 307 307 306 305 303 302 301 301 300 300 299 298 297 296 295 294 293 292 290 289
298 297 296 297 298 299 299 299 298 296 294 292 292 293 293 293 292 292 293 295 297 299 301 301 301 300 301 302 302 303 306 308 307 301 296 294 294 295 298 301 300 299 301 303 304 304 303 302 303 305 307 310 313 315 316 316 316 314 312 311 311 310 310 310 310 311 312 311 311 310 308 307 306 305 304 303 302 300 299 298 296 295 294 293 291 289
308 306 304 303 302 301 300 297 294 292 289 288 289 291 293 294 295 296 297 298 299 301 301 301 300 300 301 301 301 303 307 308 307 303 299 296 294 294 297 301 302 301 301 302 303 302 302 302 303 305 308 312 315 317 317 316 315 314 312 311 311 311 312 314 315 316 316 315 314 312 310 309 307 306 305 304 302 300 298 297 295 294 293 292 290 287
315 312 308 306 303 300 297 295 293 292 292 293 294 296 297 298 297 297 296 297 299 300 300 298 298 298 299 300 301 304 306 306 306 306 305 299 294 292 297 301 302 301 301 302 303 303 302 302 303 306 309 312 314 314 314 314 313 313 313 314 314 315 316 316 317 317 317 316 315 313 311 309 308 306 305 303 301 299 297 296 295 294 293 291 289 286
314 310 306 303 301 299 298 297 297 299 300 303 305 306 304 300 297 295 296 299 301 300 298 296 296 296 297 298 301 303 305 305 307 310 308 301 295 294 298 301 302 302 303 304 305 305 303 302 303 305 307 310 311 311 312 313 314 315 316 317 318 318 318 318 317 317 317 316 315 313 311 310 308 306 304 302 301 300 299 299 298 297 295 293 290 288
309 306 303 302 302 302 303 305 307 309 312 315 315 313 309 303 299 298 300 302 301 299 296 295 295 295 296 298 300 301 302 304 308 310 306 301 297 297 300 302 303 304 305 306 306 306 304 304 304 304 305 307 308 309 311 313 315 316 317 318 319 319 319 318 318 317 317 315 314 313 311 310 308 306 305 303 303 302 302 301 301 299 297 295 293 292
304 303 304 306 308 310 312 314 316 318 319 319 318 315 312 308 305 303 303 301 299 296 295 293 294 294 295 296 296 295 296 303 308 309 305 301 299 299 301 302 303 304 305 305 304 304 304 305 305 306 306 307 307 309 310 312 313 315 316 317 318 319 319 318 317 316 316 315 314 313 312 311 310 308 307 306 305 304 304 304 303 301 298 296 294 293
304 306 309 312 315 316 317 318 319 319 319 319 318 316 314 311 307 304 300 297 295 294 293 292 293 293 293 292 290 289 291 299 307 310 306 301 299 299 301 302 302 303 304 303 300 299 299 301 304 306 307 306 306 307 309 310 311 313 314 315 316 317 317 317 316 315 315 315 315 315 314 314 313 312 311 310 308 307 306 306 305 302 300 297 295 294
310 314 316 318 319 319 319 319 319 319 318 317 316 315 313 310 306 303 299 296 293 292 291 292 292 292 293 292 290 290 292 298 305 308 305 300 298 298 300 301 301 302 303 302 300 297 295 296 300 303 304 305 305 306 307 308 310 312 313 313 314 315 316 316 316 315 315 316 317 317 317 317 317 316 315 313 311 310 308 307 306 304 301 298 295 293
317 319 320 320 321 321 321 320 320 319 317 315 314 313 311 309 306 303 300 298 295 293 292 291 291 291 292 292 291 292 295 300 306 309 305 300 298 298 300 300 300 301 301 301 300 298 296 296 298 300 302 303 304 304 305 307 309 311 312 312 312 313 314 316 316 316 317 317 318 319 319 320 320 319 317 316 314 312 310 309 307 304 301 297 294 292
320 320 320 321 321 321 321 321 320 319 317 314 312 311 310 308 306 305 303 302 300 298 296 294 292 291 291 290 290 291 295 303 309 310 306 302 300 299 299 299 299 300 300 299 299 298 297 297 297 299 300 302 303 303 304 305 308 310 311 311 310 311 313 314 315 315 317 318 318 319 320 320 320 319 318 317 315 314 312 310 308 305 302 298 294 291
318 318 319 320 320 320 320 320 320 319 317 315 313 311 310 309 308 308 307 307 306 304 302 300 298 296 293 291 290 291 296 304 309 310 308 305 303 301 298 298 298 299 298 297 297 297 297 297 298 299 299 299 300 302 304 306 307 308 309 310 310 311 312 313 314 314 315 316 317 318 319 319 318 318 317 316 315 314 312 310 308 307 306 303 300 295
318 318 318 319 320 320 319 319 318 317 316 314 313 312 311 310 310 310 311 311 311 309 308 307 305 303 301 298 296 295 298 304 308 309 309 308 304 301 297 297 298 298 297 296 296 297 297 297 297 298 298 297 297 300 303 306 307 307 307 308 309 310 311 312 313 313 312 312 313 314 315 316 316 316 316 316 315 314 313 312 311 311 310 308 305 302
318 318 318 319 320 319 318 317 317 316 314 312 312 312 312 312 313 313 313 314 314 313 311 310 310 309 307 305 304 303 303 305 307 309 309 308 305 301 298 297 298 299 299 297 297 297 296 295 295 296 297 297 297 298 301 304 305 306 307 308 309 308 309 310 311 310 309 309 309 311 312 313 314 314 315 316 316 315 314 314 314 313 312 310 308 305
320 319 318 317 318 319 317 316 315 314 314 313 313 314 314 315 315 315 315 315 315 314 313 312 312 311 311 311 310 309 309 308 309 310 311 310 308 305 302 300 299 301 302 301 300 298 296 294 293 293 294 296 297 299 301 302 303 304 306 307 308 307 308 308 308 307 306 307 307 309 310 312 313 313 313 314 314 313 311 311 311 311 310 309 307 306
318 317 316 316 318 318 316 315 315 315 315 316 316 316 316 317 317 317 318 318 317 316 316 315 315 315 315 315 314 313 313 313 313 314 314 314 313 311 308 304 302 303 304 303 302 300 297 295 294 293 293 294 296 298 300 301 302 303 304 304 303 304 306 307 307 306 306 307 307 307 309 310 311 310 310 310 309 308 306 306 307 308 308 306 304 304
316 315 315 317 319 319 317 317 317 317 317 317 317 317 317 318 319 320 321 321 320 320 319 319 319 319 318 317 317 317 317 317 318 318 318 317 316 315 311 307 305 305 305 304 303 301 298 296 295 294 294 295 296 296 297 299 300 301 301 300 299 301 305 306 306 306 307 307 307 307 307 307 307 307 308 308 307 307 306 306 305 306 307 305 304 302
314 315 315 318 319 320 320 321 320 319 319 318 317 317 319 320 320 321 321 321 322 322 324 323 322 321 320 321 321 321 321 321 321 321 320 319 318 316 313 311 309 308 306 304 303 301 300 298 296 295 295 296 296 295 295 298 300 300 300 298 299 301 303 305 306 307 306 306 306 306 306 306 306 307 307 307 307 308 307 306 305 304 303 303 303 302
317 317 318 320 320 320 321 321 321 320 320 319 319 319 322 323 323 321 320 319 320 322 323 323 322 320 318 319 321 323 325 326 325 324 323 322 321 319 316 315 313 312 309 305 302 301 302 300 298 296 296 297 296 294 293 295 298 300 300 300 299 299 298 300 304 307 306 305 306 306 306 307 307 307 308 307 307 306 306 305 304 303 302 302 302 302
320 321 322 322 322 321 321 321 321 321 321 320 320 322 325 326 326 324 321 319 320 322 323 323 322 320 316 315 317 321 325 328 328 328 326 325 324 322 319 318 317 315 312 307 303 302 302 301 299 298 299 298 296 294 294 294 296 297 299 300 299 296 294 297 301 304 305 305 306 307 307 308 308 308 307 306 305 304 303 303 302 302 302 302 302 302
322 322 322 322 321 320 320 320 321 322 322 322 324 325 327 329 328 325 321 320 321 322 323 322 320 316 311 312 315 318 321 325 328 329 330 329 328 325 323 321 320 318 315 311 308 304 302 300 300 301 303 301 297 294 293 293 294 295 298 299 299 297 297 299 301 302 302 304 305 306 307 308 307 306 304 302 301 301 300 300 300 300 302 303 304 304
321 320 320 321 321 320 320 321 322 322 323 324 325 327 328 329 328 326 323 322 321 321 322 322 318 313 310 312 314 316 318 321 324 327 329 330 331 330 328 326 323 320 317 314 312 309 305 302 301 302 302 300 297 295 293 293 293 293 295 298 298 298 298 300 300 301 302 302 303 305 307 307 305 302 299 298 298 299 299 300 299 300 302 304 305 305
320 320 320 321 321 321 321 322 322 322 323 324 326 328 329 328 327 325 324 323 322 321 321 320 318 314 312 313 314 315 315 316 318 321 324 327 329 329 328 327 326 323 320 317 314 311 308 306 305 302 299 296 293 293 295 295 294 293 294 296 297 297 297 298 300 302 302 302 302 303 305 304 302 299 298 299 299 299 300 300 301 301 302 304 305 306
320 320 321 321 321 321 321 322 322 322 323 325 327 328 328 328 326 324 323 323 322 321 320 319 317 315 314 315 316 315 314 313 315 317 320 322 324 326 326 325 325 324 322 319 316 313 310 308 306 303 299 294 290 290 293 295 295 295 295 296 296 296 296 297 300 301 302 301 301 302 302 301 300 299 299 300 300 300 300 301 302 303 303 304 305 305
323 321 321 321 321 321 321 322 322 323 323 325 326 327 327 327 326 324 323 323 322 321 319 318 317 315 315 315 317 317 316 314 315 316 318 319 321 322 322 323 323 322 321 319 317 314 312 310 308 305 300 295 290 289 291 293 295 296 296 296 296 295 295 297 299 300 300 300 301 302 302 302 301 301 301 300 299 299 301 302 303 304 305 305 305 305
325 324 323 322 321 322 323 323 323 323 324 325 325 326 326 327 327 327 326 325 323 321 320 318 317 315 314 315 317 318 316 315 315 316 318 319 320 320 320 321 321 321 319 317 315 314 312 310 308 306 304 299 294 290 291 293 295 296 296 295 295 295 295 296 298 300 301 302 303 304 304 305 305 304 303 300 299 299 301 302 303 303 304 305 304 304
326 326 325 324 324 324 325 325 325 324 325 325 325 325 326 327 328 328 328 326 324 322 321 320 318 316 314 315 316 317 316 315 315 315 317 319 320 320 320 321 321 319 316 313 312 311 310 308 307 306 306 304 300 295 292 293 295 295 295 294 295 296 296 297 299 302 303 304 305 306 306 306 306 306 304 302 300 300 300 300 301 302 303 303 303 304